Theta_e
306 306 308 310 306 308 307 307 308 310 309 310 311 312 312 313 310 310 309 308 310 312 312 313 311 311 311 313 313 312 311 310 310 309 309 309 308 308 308 307 306 306
308 308 308 310 311 311 310 310 307 307 305 306 308 308 307 305 304 304 305 306 306 308 310 311 311 308 309 308 307 308 308 309 309 310 308 307 306 305 306 306 305 305
311 311 312 311 311 311 312 307 304 302 303 305 305 303 303 302 300 300 301 301 302 303 304 304 305 307 308 309 307 306 304 304 304 304 306 307 306 306 306 305 305 306
312 312 312 310 308 308 306 304 301 300 299 301 300 300 300 300 299 299 298 297 298 298 298 299 301 303 304 306 307 306 307 305 304 303 303 301 301 303 305 304 304 304
311 309 307 305 302 299 299 300 298 298 299 298 297 298 299 298 298 296 295 295 295 295 296 296 296 297 295 296 298 301 300 300 302 302 301 300 300 302 302 302 302 302
305 303 300 300 298 299 300 298 297 297 296 298 296 296 295 294 294 294 293 294 293 292 293 294 294 294 294 295 294 294 292 296 298 299 299 298 297 297 300 299 300 301
299 299 298 298 298 297 297 296 296 295 295 293 292 294 291 292 293 291 291 291 291 291 290 292 292 292 292 293 292 293 294 297 297 298 298 298 298 297 296 296 298 299
297 295 296 296 295 294 294 292 292 292 290 291 292 289 289 290 290 289 289 290 289 289 290 292 294 296 292 292 291 291 292 295 295 296 297 296 297 296 297 298 297 298
293 293 293 291 291 291 290 290 290 289 289 290 290 289 287 289 288 290 289 289 290 290 292 294 296 295 295 295 294 294 294 295 295 295 296 295 295 295 296 296 297 296
291 289 290 290 290 289 289 288 289 288 288 289 286 287 290 289 288 287 288 287 288 288 290 292 291 292 292 292 294 294 294 295 294 294 294 295 295 295 295 295 295 295
289 288 289 288 288 288 288 287 288 289 288 287 287 288 287 288 289 287 286 287 288 289 290 289 288 289 290 290 290 291 292 292 292 292 293 293 293 294 292 294 294 294
288 288 287 287 287 287 287 287 288 287 287 286 286 288 287 287 287 286 286 286 286 287 287 286 285 285 286 287 287 286 287 287 287 288 288 288 289 290 290 290 291 292
288 288 287 288 287 287 287 287 287 286 286 287 286 286 286 286 285 286 286 287 287 287 287 287 287 286 287 286 287 286 286 286 286 285 286 285 286 287 287 287 288 289
286 286 286 286 286 286 286 286 285 285 285 284 285 285 285 285 286 286 285 285 285 286 285 285 286 286 285 285 285 285 285 285 285 285 285 285 284 285 285 285 286 287
286 286 286 286 285 285 285 284 284 283 283 283 283 284 285 284 284 285 285 285 284 285 285 284 285 285 286 286 286 286 285 285 285 285 284 285 285 285 285 285 285 285
286 285 285 285 285 284 283 283 283 282 283 283 284 283 283 283 283 283 284 284 284 283 283 284 284 285 287 291 292 288 286 286 285 284 284 284 284 284 285 285 285 285
285 285 284 284 283 283 282 283 282 282 282 283 283 283 283 283 283 284 284 284 284 283 283 284 285 285 289 292 293 293 287 284 284 284 284 283 283 283 283 284 284 285
284 284 283 283 282 282 282 280 280 281 282 281 283 283 282 281 283 282 283 283 284 283 283 283 283 287 290 291 291 292 291 287 283 283 283 283 283 283 283 283 284 284
284 283 283 283 282 282 280 280 281 282 282 283 282 280 281 282 280 282 282 282 282 283 283 283 282 286 290 291 291 291 291 288 283 281 283 282 282 283 283 283 283 283
283 283 282 282 281 281 281 281 282 282 280 279 279 280 281 280 279 280 280 281 282 282 282 282 282 286 290 290 290 291 291 290 282 282 282 282 282 282 282 282 282 282
282 282 282 281 280 280 280 280 280 279 280 279 280 279 280 280 280 279 279 279 279 280 281 282 283 288 290 290 290 290 291 290 283 282 282 281 282 281 282 282 282 282
281 281 280 280 280 279 280 280 279 279 279 278 278 278 277 278 278 277 278 279 279 278 280 281 282 287 288 289 289 290 291 285 282 281 281 281 281 281 281 281 281 281
280 280 280 279 279 279 278 278 278 278 277 278 277 277 277 278 277 277 277 277 278 278 277 279 280 283 287 288 289 290 288 282 280 280 280 280 281 281 281 281 280 280
280 279 279 278 277 278 277 276 277 277 277 277 277 276 277 277 277 278 277 277 277 277 277 277 279 282 286 288 289 289 287 282 281 280 280 280 281 282 282 282 282 282
278 278 277 276 276 275 275 275 276 276 276 275 275 275 276 276 277 277 276 276 275 276 279 278 276 280 285 287 287 287 285 282 281 279 280 280 281 281 281 282 281 282
277 276 275 274 274 273 273 275 275 274 274 273 274 274 275 275 275 275 274 274 274 275 276 276 277 278 281 285 285 286 286 283 279 279 279 279 279 279 279 280 280 280
Wind_Speed
5 4 5 6 4 5 4 3 3 2 2 3 4 5 6 4 3 4 5 3 3 3 3 3 2 2 2 1 1 2 3 2 2 2 3 3 3 4 6 5 4 5
3 4 4 4 4 3 4 4 2 4 4 4 3 2 1 1 2 1 1 0 1 1 2 2 2 2 3 3 3 2 1 1 3 3 3 3 3 3 4 4 4 4
3 3 3 2 2 2 0 0 1 2 2 1 1 1 2 2 3 3 3 3 3 2 2 2 1 2 2 3 3 3 3 2 2 3 2 3 2 2 4 4 4 6
4 4 4 3 3 3 3 2 2 2 2 3 2 1 3 3 4 4 4 4 3 3 2 2 1 1 1 2 2 3 3 3 3 2 3 3 3 4 4 4 5 5
3 3 3 4 3 3 4 4 4 4 4 3 4 5 6 5 5 5 6 6 5 5 5 5 5 5 4 3 2 1 2 2 3 2 3 3 4 3 3 3 5 6
4 4 4 4 4 4 5 4 4 4 4 5 4 5 4 4 5 5 5 5 5 6 5 6 5 5 5 5 6 6 3 3 3 2 1 2 3 3 3 3 4 6
6 6 5 5 5 5 6 5 5 5 4 3 4 5 4 5 5 4 4 5 4 4 4 4 4 5 5 5 6 6 6 5 4 5 5 6 5 6 4 4 4 5
5 4 5 6 6 6 6 5 5 5 4 5 6 3 4 4 4 4 4 4 5 4 4 5 5 5 5 5 5 5 5 4 5 6 5 5 5 5 5 5 5 6
6 6 6 6 7 6 5 5 5 5 5 6 5 3 3 4 4 5 4 5 5 5 5 5 5 4 4 4 4 4 4 4 4 5 5 5 6 5 5 5 6 6
6 6 7 6 6 5 6 5 5 4 4 5 4 4 5 4 4 4 5 4 4 3 2 1 1 1 2 2 2 3 4 4 3 4 4 4 4 5 5 5 6 7
6 6 7 6 6 5 5 5 5 6 6 4 5 5 4 5 5 4 4 3 1 1 0 0 0 0 1 1 1 0 1 2 3 3 3 3 3 4 4 5 5 6
6 7 6 6 6 5 5 5 6 5 4 4 4 4 4 4 4 4 3 2 1 0 0 1 1 1 1 1 2 2 2 2 2 3 3 4 4 4 4 4 5 6
6 6 6 6 6 6 6 6 6 5 4 4 4 4 4 4 3 4 2 2 1 1 2 1 1 1 1 1 2 1 2 2 3 3 3 3 4 4 4 4 5 5
6 5 6 6 5 6 6 6 5 5 4 3 4 4 4 4 3 3 2 2 2 3 3 2 2 3 2 2 2 2 2 3 2 3 4 4 4 4 4 4 5 5
6 5 5 6 7 7 6 5 4 4 3 3 3 3 3 3 3 3 4 4 4 4 4 4 4 4 3 3 4 4 2 4 4 4 5 6 7 7 6 5 5 5
7 6 6 6 6 6 4 4 4 3 3 3 4 4 4 3 4 3 4 4 4 4 3 3 3 2 5 9 7 5 5 5 5 4 4 4 5 7 8 6 7 6
7 7 6 6 4 4 4 4 4 3 4 4 4 4 4 4 4 5 4 4 4 4 4 4 4 3 8 8 7 7 5 4 4 6 5 5 5 5 7 8 8 7
7 7 6 5 4 4 5 4 4 4 4 4 4 5 4 4 6 4 4 4 5 4 4 5 4 6 8 9 8 7 6 4 3 5 5 5 6 6 6 7 8 9
6 7 6 5 5 5 4 4 4 4 5 5 6 3 3 5 4 5 5 5 5 6 6 5 5 7 8 11 10 9 9 6 3 3 4 5 5 6 7 7 8 8
6 7 7 6 4 4 4 4 5 5 4 3 3 4 5 4 4 5 4 5 5 5 5 5 5 8 11 12 12 13 13 10 4 5 5 5 6 7 7 7 7 8
6 7 7 5 4 4 4 5 5 4 5 4 4 4 4 4 4 4 4 4 4 4 5 6 5 10 9 11 12 12 13 10 5 4 5 5 6 5 7 7 7 8
6 7 6 5 5 4 6 6 5 4 4 3 3 3 2 2 3 2 4 4 3 3 4 6 6 9 9 9 11 11 11 6 5 5 5 6 6 5 6 6 6 7
5 7 6 5 4 6 5 4 4 4 3 2 4 3 4 4 3 2 2 3 4 4 4 5 5 8 9 9 9 12 8 5 5 5 6 6 7 5 5 5 4 4
5 6 6 5 4 5 4 3 2 1 1 1 3 2 2 2 2 3 3 3 3 4 2 3 5 7 9 9 11 14 10 6 6 6 7 7 8 8 6 6 7 10
5 5 5 5 5 3 3 3 1 1 0 1 1 1 1 2 3 3 4 4 3 3 5 2 3 6 8 11 14 14 11 6 7 7 8 9 10 11 11 9 8 8
4 5 4 4 4 3 2 1 0 1 2 2 3 3 3 3 3 3 2 3 3 2 3 2 4 5 7 15 15 15 15 9 7 8 11 12 11 10 12 12 11 10
Wind_Direction
127 129 142 140 138 134 142 141 139 120 143 167 180 208 209 235 262 260 255 249 229 214 212 199 212 280 281 294 318 321 311 301 303 286 262 259 258 255 259 264 260 251
120 118 116 117 98 95 98 110 119 147 178 182 197 206 213 112 10 52 113 36 2 300 305 293 260 249 267 270 258 251 281 328 312 317 306 293 280 275 272 274 273 276
102 91 90 101 112 94 289 303 144 166 175 204 133 141 143 138 111 84 76 80 63 22 357 333 337 322 297 294 294 264 233 221 237 244 231 249 265 284 271 270 265 259
118 123 120 114 126 172 190 144 83 98 105 90 77 88 85 58 58 50 51 57 62 49 35 58 41 347 343 305 300 282 280 290 282 280 262 262 232 225 249 258 274 285
143 136 158 179 166 126 122 110 102 89 85 88 56 39 52 44 47 47 40 34 38 29 31 22 13 16 7 22 40 14 346 319 306 309 269 279 286 271 260 246 256 261
154 153 147 141 135 114 86 87 86 83 78 69 70 57 58 63 66 63 54 46 37 46 41 34 31 24 23 16 18 23 10 1 337 15 347 294 289 291 279 274 276 280
124 117 110 106 91 87 88 82 76 77 76 97 72 42 57 59 65 67 66 62 56 49 49 43 40 28 23 24 26 15 8 1 355 6 358 337 338 333 330 318 301 296
101 97 98 90 88 81 84 80 79 77 84 65 71 44 73 73 71 70 70 65 58 36 35 30 30 22 14 23 17 14 360 1 6 2 355 343 351 338 337 335 329 319
99 92 91 91 90 88 88 88 84 73 69 79 66 52 54 76 89 82 74 67 53 43 34 28 20 17 11 17 10 9 1 353 1 360 353 346 344 336 334 336 328 322
90 93 90 92 92 94 90 82 82 74 73 73 74 62 57 41 57 75 73 77 76 67 73 84 62 58 32 26 18 11 3 357 355 356 341 330 320 317 317 318 311 309
94 92 94 91 94 90 90 86 78 73 61 73 73 61 49 54 45 53 67 70 97 143 175 305 255 265 338 325 309 315 310 303 310 312 311 304 301 298 304 302 301 297
95 94 100 105 104 95 91 82 74 70 74 59 79 73 59 55 66 53 78 80 92 183 198 276 293 298 283 288 297 312 319 308 297 290 282 281 282 280 277 278 278 283
105 110 110 104 98 94 83 74 72 71 70 69 71 88 83 70 54 59 32 71 43 46 30 345 337 340 339 319 314 312 306 305 302 301 289 284 279 283 287 283 279 278
110 107 99 96 89 80 76 73 72 70 72 68 82 85 92 94 83 82 32 60 31 37 7 23 23 11 348 332 314 300 307 302 298 304 311 307 301 294 286 285 280 282
107 98 92 85 81 78 77 78 80 83 78 86 90 89 79 80 84 78 65 41 30 34 19 9 23 357 345 341 337 329 329 329 330 332 329 325 322 319 314 305 294 279
100 93 89 85 82 88 100 100 95 96 106 89 73 69 64 56 59 63 66 59 42 29 31 20 7 359 347 347 351 349 340 338 333 327 322 313 312 312 310 308 300 295
102 99 95 93 104 108 104 95 92 97 84 74 68 61 55 46 55 48 40 34 40 27 20 15 1 348 342 350 351 349 347 329 321 313 313 307 303 301 302 308 305 300
111 110 104 108 110 101 96 96 100 93 79 74 64 49 37 47 50 41 33 21 19 25 21 3 348 338 338 345 343 339 330 310 294 294 299 302 303 302 299 299 299 301
120 116 114 109 99 98 99 100 100 81 68 57 51 41 45 50 31 35 26 12 17 11 3 353 344 334 335 343 343 343 342 342 322 296 299 298 299 297 296 297 298 298
120 115 107 103 101 97 98 93 82 73 67 61 60 43 46 40 34 32 23 19 11 2 347 340 335 332 340 342 342 340 339 343 334 323 306 295 292 293 292 292 290 295
115 108 104 101 99 100 95 81 75 69 56 41 49 42 39 25 16 20 13 16 359 355 346 336 329 331 334 335 333 330 328 333 320 311 298 288 285 279 281 280 285 285
114 108 102 102 97 85 79 69 62 57 50 23 44 26 26 44 21 42 22 357 349 353 353 331 322 324 322 321 324 317 320 321 314 307 301 297 292 287 278 278 278 283
109 109 104 96 90 84 75 67 61 41 33 41 48 28 30 20 14 352 331 349 341 348 344 315 312 320 324 315 314 328 335 331 319 313 307 305 305 302 296 292 293 292
95 97 101 96 87 88 89 81 69 53 58 39 75 46 17 355 347 353 351 356 341 317 307 298 304 315 326 319 352 358 359 347 333 333 324 328 325 327 329 325 318 321
89 88 95 102 95 97 101 93 98 119 231 66 66 66 20 355 2 8 349 342 318 282 295 287 301 329 345 1 6 4 5 355 349 349 347 348 345 336 333 331 328 330
85 91 94 100 105 104 104 113 144 61 31 38 14 44 14 359 2 360 334 305 301 311 341 16 23 359 358 8 10 9 8 11 5 12 359 344 341 336 329 326 325 323